Location: B?ogocice
(50.2413°N, 20.2361°E)
Time: 23:09:39
(UTC+00:00)

Cosmos 2263 Rocket - Pass Details

Date: 15 June 2024
Orbit: 824 x 846 km, 71.0° (Epoch: 18 July)

Event Time Altitude Azimuth Distance (km) Brightness Sun altitude
Exits shadow 00:58:56 11° 233° (SW) 2,344 3.9 -10.2°
Maximum altitude 01:04:05 48° 307° (NW) 1,067 2.8 -9.8°
Drops below altitude 10° 01:09:29 10° 22° (NNE) 2,436 6.1 -9.3°
Sets 01:12:01 0° 28° (NNE) 3,372 7.6 -9.1°
